User: anonymous   Login
Location: Unspecified
(0.0000°N, 0.0000°E)
Time: 09:34:46
(UTC+00:00)
Language:

A-11 Canister half - Orbit

View from above orbital plane
View from above orbital plane
View from above satellite
View from above satellite

Ground track
Ground track

The orbit data is extracted from the following two-line orbital elements,

1    53U 60009E   18049.21052023 -.00000086 +00000-0 +00000-0 0  9995
2    53 047.2782 000.9088 0096960 087.9250 273.2639 12.17205386565009
Epoch (UTC): 18 February 2018 05:03:08
Eccentricity: 0.0096960
inclination: 47.2782°
perigee height: 1527 km
apogee height: 1682 km
right ascension of ascending node: 0.9088°
argument of perigee: 87.9250°
revolutions per day: 12.17205386
mean anomaly at epoch: 273.2639°
orbit number at epoch: 56500

The dashed part of the orbit path shows where the satellite is in the earth's shadow,  

DLR